Total_Precipitation_Accumulation
0.52 0.82 1.10 1.14 1.16 1.07 0.89 0.88 0.94 0.89 0.79 0.87 0.87 0.89 0.93 0.94 0.98 0.90 0.74 0.69 0.71 0.71 0.73 0.74 0.77 0.82 0.86 0.87 0.87 0.87 0.92 1.02 1.13 1.35 1.66 2.17 2.43 2.52 2.40 2.34 2.23 2.00 1.75 1.73
0.64 0.66 0.55 0.60 0.65 0.75 0.75 0.84 0.85 0.80 0.70 0.73 0.70 0.72 0.72 0.70 0.65 0.61 0.56 0.52 0.57 0.61 0.72 0.71 0.68 0.69 0.73 0.73 0.76 0.91 0.94 0.99 1.09 1.37 1.68 2.06 2.49 2.55 2.50 2.40 2.29 2.17 2.02 1.96
0.55 0.48 0.43 0.55 0.62 0.70 0.72 0.78 0.78 0.84 0.79 0.71 0.68 0.75 0.73 0.64 0.53 0.47 0.44 0.43 0.47 0.48 0.57 0.64 0.67 0.67 0.68 0.64 0.61 0.73 0.89 1.06 1.33 1.64 1.94 2.13 2.44 2.54 2.54 2.42 2.35 2.35 2.28 2.15
0.58 0.44 0.44 0.56 0.56 0.57 0.77 0.54 0.49 0.59 0.87 0.94 0.71 0.88 0.71 0.57 0.59 0.52 0.46 0.42 0.43 0.47 0.49 0.55 0.62 0.63 0.59 0.55 0.52 0.60 0.76 1.04 1.43 1.80 2.03 2.27 2.64 2.73 2.60 2.54 2.46 2.42 2.42 2.40
0.57 0.42 0.43 0.50 0.43 0.41 0.55 0.45 0.45 0.52 0.72 0.79 0.61 0.64 0.64 0.56 0.61 0.59 0.52 0.49 0.44 0.43 0.41 0.46 0.50 0.51 0.52 0.56 0.57 0.63 0.82 1.11 1.44 1.69 1.96 2.30 2.50 2.62 2.69 2.59 2.55 2.51 2.51 2.53
0.47 0.35 0.36 0.39 0.36 0.35 0.39 0.50 0.58 0.59 0.72 0.77 0.44 0.52 0.65 0.56 0.45 0.46 0.48 0.46 0.42 0.39 0.38 0.45 0.51 0.53 0.57 0.60 0.67 0.79 0.97 1.15 1.42 1.66 1.93 2.11 2.29 2.44 2.53 2.57 2.52 2.48 2.49 2.58
0.47 0.37 0.29 0.27 0.38 0.38 0.42 0.74 1.01 0.99 0.99 0.76 0.36 0.49 0.64 0.46 0.35 0.36 0.40 0.42 0.41 0.43 0.48 0.56 0.63 0.72 0.81 0.84 0.88 0.99 1.12 1.30 1.44 1.54 1.70 1.82 1.96 2.10 2.10 2.23 2.29 2.41 2.39 2.41
0.43 0.41 0.26 0.23 0.31 0.39 0.37 0.58 0.95 1.02 0.86 0.66 0.50 0.70 0.68 0.44 0.37 0.38 0.39 0.44 0.47 0.56 0.65 0.79 0.90 1.04 1.11 1.12 1.16 1.23 1.31 1.37 1.40 1.43 1.50 1.62 1.75 1.83 1.82 1.80 1.80 1.94 2.09 2.12
0.40 0.38 0.20 0.21 0.25 0.31 0.38 0.46 0.50 0.65 0.57 0.59 0.60 0.72 0.66 0.47 0.44 0.45 0.47 0.52 0.62 0.81 0.92 1.06 1.20 1.28 1.26 1.25 1.25 1.30 1.35 1.37 1.35 1.36 1.39 1.35 1.43 1.51 1.55 1.53 1.59 1.60 1.65 1.67
0.38 0.42 0.25 0.22 0.29 0.29 0.33 0.47 0.63 0.90 1.00 0.88 0.72 0.84 0.83 0.64 0.53 0.50 0.57 0.69 0.86 1.12 1.27 1.44 1.60 1.55 1.48 1.48 1.54 1.45 1.36 1.33 1.32 1.32 1.37 1.30 1.34 1.38 1.37 1.31 1.37 1.34 1.30 1.31
0.32 0.49 0.40 0.28 0.29 0.32 0.37 0.50 0.67 0.96 1.05 1.22 1.26 1.29 0.98 0.79 0.72 0.80 0.94 1.05 1.25 1.50 1.65 1.75 1.85 1.82 1.64 1.53 1.52 1.45 1.33 1.24 1.19 1.19 1.30 1.32 1.29 1.31 1.33 1.27 1.21 1.20 1.19 1.19
0.30 0.49 0.51 0.32 0.25 0.29 0.46 0.64 0.85 1.33 1.31 1.16 1.36 1.48 1.07 0.87 0.88 0.91 0.99 1.17 1.38 1.49 1.57 1.60 1.60 1.66 1.57 1.48 1.39 1.36 1.26 1.11 1.09 1.12 1.17 1.27 1.25 1.21 1.26 1.23 1.27 1.18 1.09 1.08
0.39 0.57 0.73 0.63 0.55 0.52 0.61 0.66 0.77 0.94 1.17 1.24 1.45 1.60 1.14 0.91 0.89 0.94 1.06 1.15 1.19 1.19 1.29 1.38 1.44 1.37 1.38 1.36 1.29 1.39 1.40 1.25 1.24 1.23 1.30 1.30 1.26 1.24 1.28 1.20 1.28 1.19 1.12 1.10
0.46 0.54 0.66 0.80 0.76 0.73 0.76 0.66 0.61 0.78 1.07 1.12 1.18 1.26 1.02 0.94 0.91 0.90 0.97 1.01 1.07 1.09 1.14 1.19 1.25 1.21 1.29 1.33 1.34 1.44 1.45 1.37 1.39 1.48 1.48 1.38 1.32 1.24 1.20 1.16 1.17 1.15 1.12 1.12
0.41 0.42 0.35 0.36 0.34 0.43 0.64 0.75 0.65 0.67 0.78 1.05 0.95 0.82 0.81 0.78 0.81 0.82 0.87 0.91 0.91 0.95 0.95 0.91 0.92 0.96 1.07 1.11 1.12 1.21 1.26 1.29 1.39 1.46 1.42 1.40 1.27 1.14 1.08 1.08 1.02 1.07 1.14 1.13
0.34 0.33 0.25 0.21 0.18 0.28 0.53 0.64 0.64 0.62 0.62 0.65 0.59 0.58 0.49 0.48 0.54 0.60 0.67 0.65 0.68 0.73 0.73 0.71 0.69 0.71 0.78 0.72 0.75 0.82 0.97 1.14 1.31 1.38 1.33 1.24 1.12 1.09 1.03 0.96 0.92 0.94 0.98 1.03
0.32 0.36 0.39 0.29 0.21 0.31 0.55 0.55 0.58 0.44 0.31 0.31 0.39 0.40 0.34 0.35 0.43 0.49 0.59 0.62 0.58 0.60 0.63 0.64 0.64 0.61 0.64 0.62 0.64 0.71 0.81 0.98 1.12 1.17 1.13 1.03 0.96 0.93 0.91 0.86 0.88 0.90 0.91 0.96
0.28 0.40 0.54 0.44 0.42 0.64 0.74 0.57 0.49 0.41 0.26 0.19 0.22 0.25 0.26 0.29 0.36 0.40 0.48 0.58 0.55 0.51 0.53 0.57 0.59 0.57 0.60 0.66 0.70 0.78 0.84 0.88 0.96 1.05 1.04 0.98 0.90 0.84 0.81 0.78 0.83 0.91 0.89 0.86
0.31 0.42 0.58 0.57 0.57 0.61 0.56 0.39 0.37 0.46 0.44 0.23 0.19 0.20 0.20 0.23 0.31 0.33 0.36 0.41 0.41 0.38 0.35 0.35 0.38 0.41 0.48 0.53 0.59 0.61 0.64 0.67 0.73 0.80 0.85 0.82 0.74 0.76 0.82 0.77 0.85 0.89 0.85 0.84
0.43 0.43 0.63 0.64 0.65 0.69 0.49 0.24 0.21 0.37 0.61 0.29 0.17 0.14 0.14 0.20 0.33 0.31 0.24 0.25 0.26 0.27 0.26 0.23 0.23 0.25 0.30 0.36 0.48 0.54 0.53 0.49 0.51 0.57 0.60 0.65 0.63 0.66 0.73 0.80 0.87 0.88 0.83 0.86
0.41 0.47 0.59 0.71 0.83 0.87 0.58 0.30 0.26 0.54 0.65 0.31 0.17 0.14 0.15 0.19 0.23 0.22 0.20 0.21 0.19 0.22 0.23 0.22 0.22 0.24 0.27 0.32 0.38 0.42 0.48 0.45 0.45 0.50 0.51 0.53 0.55 0.59 0.70 0.76 0.71 0.71 0.73 0.78
0.55 0.70 0.79 0.90 1.11 1.20 0.74 0.53 0.54 0.51 0.32 0.21 0.16 0.15 0.17 0.20 0.19 0.18 0.18 0.18 0.16 0.18 0.20 0.20 0.21 0.24 0.30 0.31 0.31 0.33 0.35 0.36 0.39 0.42 0.47 0.45 0.42 0.44 0.50 0.58 0.64 0.64 0.63 0.65
0.52 0.82 1.01 1.00 1.01 0.85 0.61 0.53 0.44 0.35 0.28 0.19 0.18 0.19 0.19 0.20 0.18 0.18 0.16 0.16 0.14 0.16 0.17 0.19 0.23 0.29 0.33 0.34 0.31 0.29 0.30 0.32 0.38 0.42 0.45 0.43 0.42 0.40 0.43 0.50 0.58 0.64 0.67 0.66
0.32 0.39 0.48 0.51 0.51 0.44 0.36 0.31 0.28 0.24 0.24 0.19 0.16 0.18 0.21 0.21 0.20 0.19 0.17 0.17 0.16 0.16 0.17 0.19 0.25 0.28 0.35 0.34 0.34 0.32 0.30 0.29 0.33 0.38 0.42 0.42 0.44 0.44 0.43 0.47 0.54 0.65 0.67 0.61
0.27 0.28 0.31 0.32 0.28 0.28 0.26 0.24 0.23 0.22 0.18 0.15 0.15 0.17 0.22 0.22 0.20 0.19 0.20 0.21 0.20 0.19 0.18 0.20 0.23 0.27 0.32 0.37 0.35 0.35 0.33 0.30 0.30 0.34 0.37 0.38 0.42 0.46 0.44 0.40 0.43 0.54 0.58 0.58
0.23 0.30 0.32 0.27 0.18 0.22 0.24 0.21 0.20 0.20 0.17 0.16 0.17 0.20 0.22 0.19 0.18 0.18 0.18 0.24 0.25 0.22 0.20 0.22 0.23 0.27 0.27 0.31 0.37 0.39 0.40 0.37 0.34 0.34 0.36 0.38 0.41 0.46 0.47 0.42 0.40 0.45 0.48 0.56